,,,PA_Meas_PMT16A,,PR_Meas_QMR101_102,,RH_Meas_QMH101,,SR_Meas_QMS101,,TA_Meas_QMH101,,GenWind,,GenWind,
date,time,status,PA,status,PR,status,RH,status,SR,status,TA,status,DirAvg,status,SpdAvg,
2011-03-09, 00:00:05,VALID,1010.09,VALID,0,VALID,104,VALID,0,VALID,24.1812,VALID,104,VALID,0,
2011-03-09, 00:01:05,VALID,1010.09,VALID,0,VALID,104,VALID,0,VALID,24.1812,VALID,104,VALID,0,
2011-03-09, 00:02:05,VALID,1010.1,VALID,0,VALID,104,VALID,0,VALID,24.1617,VALID,104,VALID,0,
2011-03-09, 00:03:05,VALID,1010.05,VALID,0,VALID,104,VALID,0,VALID,24.1617,VALID,104,VALID,0,
2011-03-09, 00:04:05,VALID,1010.06,VALID,0,VALID,104,VALID,0,VALID,24.183,VALID,104,VALID,0,
2011-03-09, 00:05:05,VALID,1010.03,VALID,0,VALID,104,VALID,0,VALID,24.1617,VALID,104,VALID,0,
2011-03-09, 00:06:05,VALID,1010.03,VALID,0,VALID,104,VALID,0,VALID,24.1812,VALID,104,VALID,0,
2011-03-09, 00:07:05,VALID,1010,VALID,0,VALID,104,VALID,0,VALID,24.1599,VALID,104,VALID,0,
2011-03-09, 00:08:05,VALID,1010.02,VALID,0,VALID,104,VALID,0,VALID,24.1599,VALID,104,VALID,0,
2011-03-09, 00:09:05,VALID,1010,VALID,0,VALID,104,VALID,0,VALID,24.1599,VALID,104,VALID,0,
2011-03-09, 00:10:05,VALID,1009.99,VALID,0,VALID,104,VALID,0.105969,VALID,24.1599,VALID,104,VALID,0,
2011-03-09, 00:11:05,VALID,1009.96,VALID,0,VALID,104,VALID,0,VALID,24.1617,VALID,104,VALID,0,
2011-03-09, 00:12:05,VALID,1009.97,VALID,0,VALID,104,VALID,0,VALID,24.1599,VALID,104,VALID,0,
2011-03-09, 00:13:05,VALID,1009.96,VALID,0,VALID,104,VALID,0,VALID,24.1599,VALID,104,VALID,0,
2011-03-09, 00:14:05,VALID,1009.95,VALID,0,VALID,104,VALID,0,VALID,24.1812,VALID,104,VALID,0,
2011-03-09, 00:15:05,VALID,1009.94,VALID,0,VALID,104,VALID,0,VALID,24.1599,VALID,104,VALID,0,
2011-03-09, 00:16:05,VALID,1009.93,VALID,0,VALID,104,VALID,0.105969,VALID,24.1599,VALID,104,VALID,0,
2011-03-09, 00:17:05,VALID,1009.93,VALID,0,VALID,104,VALID,0,VALID,24.1599,VALID,104,VALID,0,
2011-03-09, 00:18:05,VALID,1009.96,VALID,0,VALID,104,VALID,0,VALID,24.2007,VALID,98,VALID,0,
2011-03-09, 00:19:05,VALID,1009.96,VALID,0,VALID,104,VALID,0,VALID,24.1793,VALID,68,VALID,0.164453,
2011-03-09, 00:20:05,VALID,1009.98,VALID,0,VALID,104,VALID,0.105969,VALID,24.1793,VALID,85,VALID,1.20859,
2011-03-09, 00:21:05,VALID,1010.01,VALID,0,VALID,104,VALID,0,VALID,24.1988,VALID,87,VALID,1.40625,
2011-03-09, 00:22:05,VALID,1010.01,VALID,0,VALID,104,VALID,0,VALID,24.1988,VALID,77,VALID,1.27969,
2011-03-09, 00:23:05,VALID,1009.99,VALID,0,VALID,104,VALID,0,VALID,24.1599,VALID,74,VALID,1.3207,
2011-03-09, 00:24:05,VALID,1009.98,VALID,0,VALID,104,VALID,0.105969,VALID,24.1599,VALID,96,VALID,1.5125,
2011-03-09, 00:25:05,VALID,1009.98,VALID,0,VALID,104,VALID,0.105969,VALID,24.1404,VALID,81,VALID,1.17578,
2011-03-09, 00:26:05,VALID,1009.97,VALID,0,VALID,104,VALID,0.105969,VALID,24.1599,VALID,86,VALID,1.05469,
2011-03-09, 00:27:05,VALID,1009.96,VALID,0,VALID,104,VALID,0.105969,VALID,24.1404,VALID,94,VALID,1.00937,
2011-03-09, 00:28:05,VALID,1009.95,VALID,0,VALID,104,VALID,0.105969,VALID,24.1404,VALID,88,VALID,0.944922,
2011-03-09, 00:29:05,VALID,1009.94,VALID,0,VALID,104,VALID,0.105969,VALID,24.1404,VALID,126,VALID,0.849609,
2011-03-09, 00:30:05,VALID,1009.93,VALID,0,VALID,104,VALID,0,VALID,24.1209,VALID,118,VALID,0.450781,
2011-03-09, 00:31:05,VALID,1009.92,VALID,0,VALID,104,VALID,0.105969,VALID,24.1209,VALID,132,VALID,0.760156,
2011-03-09, 00:32:05,VALID,1009.91,VALID,0,VALID,104,VALID,0,VALID,24.1014,VALID,115,VALID,0.692969,
2011-03-09, 00:33:05,VALID,1009.9,VALID,0,VALID,104,VALID,0.105969,VALID,24.1014,VALID,93,VALID,0.638281,
2011-03-09, 00:34:05,VALID,1009.87,VALID,0,VALID,104,VALID,0,VALID,24.0819,VALID,72,VALID,0.691016,
2011-03-09, 00:35:05,VALID,1009.87,VALID,0,VALID,104,VALID,0,VALID,24.0819,VALID,78,VALID,1.22773,
2011-03-09, 00:36:05,VALID,1009.83,VALID,0,VALID,104,VALID,0,VALID,24.0624,VALID,89,VALID,1.16641,
2011-03-09, 00:37:05,VALID,1009.87,VALID,0,VALID,104,VALID,0.105969,VALID,24.0624,VALID,77,VALID,1.31797,
2011-03-09, 00:38:05,VALID,1009.84,VALID,0,VALID,104,VALID,0.105969,VALID,24.0624,VALID,70,VALID,1.05352,
2011-03-09, 00:39:05,VALID,1009.83,VALID,0,VALID,104,VALID,0.105969,VALID,24.0216,VALID,64,VALID,0.945703,
2011-03-09, 00:40:05,VALID,1009.84,VALID,0,VALID,104,VALID,0.105969,VALID,24.0429,VALID,101,VALID,0.891406,
2011-03-09, 00:41:05,VALID,1009.81,VALID,0,VALID,104,VALID,0,VALID,24.0235,VALID,96,VALID,1.01719,
2011-03-09, 00:42:05,VALID,1009.81,VALID,0,VALID,104,VALID,0,VALID,24.004,VALID,90,VALID,0.778906,
2011-03-09, 00:43:05,VALID,1009.78,VALID,0,VALID,104,VALID,0.105969,VALID,23.9632,VALID,55,VALID,1.02461,
2011-03-09, 00:44:05,VALID,1009.78,VALID,0,VALID,104,VALID,0.105969,VALID,24.004,VALID,70,VALID,0.865625,
2011-03-09, 00:45:05,VALID,1009.79,VALID,0,VALID,104,VALID,0.105969,VALID,23.9845,VALID,55,VALID,0.250391,
2011-03-09, 00:46:05,VALID,1009.78,VALID,0,VALID,104,VALID,0.105969,VALID,23.9845,VALID,74,VALID,0.891406,
2011-03-09, 00:47:05,VALID,1009.76,VALID,0,VALID,104,VALID,0,VALID,23.965,VALID,66,VALID,0.296484,
2011-03-09, 00:48:05,VALID,1009.78,VALID,0,VALID,104,VALID,0,VALID,23.965,VALID,83,VALID,0.665625,
2011-03-09, 00:49:05,VALID,1009.76,VALID,0,VALID,104,VALID,0,VALID,23.965,VALID,83,VALID,0.939453,
2011-03-09, 00:50:05,VALID,1009.72,VALID,0,VALID,104,VALID,0.105969,VALID,23.965,VALID,71,VALID,0.792969,
2011-03-09, 00:51:05,VALID,1009.7,VALID,0,VALID,104,VALID,0,VALID,23.9455,VALID,80,VALID,0.721875,
2011-03-09, 00:52:05,VALID,1009.68,VALID,0,VALID,104,VALID,0.105969,VALID,23.926,VALID,103,VALID,1.09063,
2011-03-09, 00:53:05,VALID,1009.66,VALID,0,VALID,104,VALID,0,VALID,23.9084,VALID,107,VALID,0.596484,
2011-03-09, 00:54:05,VALID,1009.66,VALID,0,VALID,104,VALID,0,VALID,23.9084,VALID,93,VALID,0.711719,
2011-03-09, 00:55:05,VALID,1009.65,VALID,0,VALID,104,VALID,0,VALID,23.9278,VALID,88,VALID,0.836719,
2011-03-09, 00:56:05,VALID,1009.64,VALID,0,VALID,104,VALID,0,VALID,23.9297,VALID,89,VALID,0.861328,
2011-03-09, 00:57:05,VALID,1009.63,VALID,0,VALID,104,VALID,0,VALID,23.8889,VALID,90,VALID,0.56875,
2011-03-09, 00:58:05,VALID,1009.62,VALID,0,VALID,104,VALID,0,VALID,23.8889,VALID,86,VALID,0.842188,
2011-03-09, 00:59:05,VALID,1009.63,VALID,0,VALID,104,VALID,0,VALID,23.9084,VALID,107,VALID,0.805078,
2011-03-09, 01:00:05,VALID,1009.6,VALID,0,VALID,104,VALID,0,VALID,23.9084,VALID,111,VALID,0.558203,
2011-03-09, 01:01:04,VALID,1009.59,VALID,0,VALID,104,VALID,0,VALID,23.8889,VALID,102,VALID,0.897266,
2011-03-09, 01:02:04,VALID,1009.58,VALID,0,VALID,104,VALID,0,VALID,23.8889,VALID,102,VALID,0.263672,
2011-03-09, 01:03:04,VALID,1009.54,VALID,0,VALID,104,VALID,0,VALID,23.8889,VALID,102,VALID,0.498047,
2011-03-09, 01:04:04,VALID,1009.53,VALID,0,VALID,104,VALID,0,VALID,23.8889,VALID,107,VALID,0.569141,
2011-03-09, 01:05:04,VALID,1009.46,VALID,0,VALID,104,VALID,0,VALID,23.9084,VALID,109,VALID,0.493359,
2011-03-09, 01:06:04,VALID,1009.49,VALID,0,VALID,104,VALID,0,VALID,23.8889,VALID,109,VALID,0.576953,
2011-03-09, 01:07:04,VALID,1009.48,VALID,0,VALID,104,VALID,0,VALID,23.8889,VALID,109,VALID,0.379687,
2011-03-09, 01:08:04,VALID,1009.47,VALID,0,VALID,104,VALID,0,VALID,23.8889,VALID,102,VALID,0.592578,
2011-03-09, 01:09:04,VALID,1009.51,VALID,0,VALID,104,VALID,0,VALID,23.8676,VALID,87,VALID,0.5125,
2011-03-09, 01:10:04,VALID,1009.5,VALID,0,VALID,104,VALID,0,VALID,23.8889,VALID,96,VALID,0.651563,
2011-03-09, 01:11:04,VALID,1009.47,VALID,0,VALID,104,VALID,0,VALID,23.8889,VALID,96,VALID,0.467187,
2011-03-09, 01:12:04,VALID,1009.46,VALID,0,VALID,104,VALID,0,VALID,23.8694,VALID,79,VALID,0.835547,
2011-03-09, 01:13:04,VALID,1009.5,VALID,0,VALID,104,VALID,0,VALID,23.8694,VALID,64,VALID,0.908203,
2011-03-09, 01:14:04,VALID,1009.49,VALID,0,VALID,104,VALID,0,VALID,23.8499,VALID,78,VALID,0.565625,
2011-03-09, 01:15:04,VALID,1009.48,VALID,0,VALID,104,VALID,0,VALID,23.8499,VALID,71,VALID,0.675,
2011-03-09, 01:16:04,VALID,1009.46,VALID,0,VALID,104,VALID,0,VALID,23.8499,VALID,75,VALID,0.7,
2011-03-09, 01:17:04,VALID,1009.47,VALID,0,VALID,104,VALID,0,VALID,23.8304,VALID,67,VALID,0.592578,
2011-03-09, 01:18:04,VALID,1009.47,VALID,0,VALID,104,VALID,0,VALID,23.8304,VALID,81,VALID,0.896094,
2011-03-09, 01:19:04,VALID,1009.43,VALID,0,VALID,104,VALID,0,VALID,23.8304,VALID,72,VALID,0.688281,
2011-03-09, 01:20:04,VALID,1009.45,VALID,0,VALID,104,VALID,0,VALID,23.8304,VALID,72,VALID,0.367188,
2011-03-09, 01:21:04,VALID,1009.42,VALID,0,VALID,104,VALID,0,VALID,23.8304,VALID,70,VALID,0.690234,
2011-03-09, 01:22:04,VALID,1009.44,VALID,0,VALID,104,VALID,0,VALID,23.8499,VALID,73,VALID,0.644141,
2011-03-09, 01:23:04,VALID,1009.45,VALID,0,VALID,104,VALID,0,VALID,23.8499,VALID,85,VALID,0.349219,
2011-03-09, 01:24:04,VALID,1009.45,VALID,0,VALID,104,VALID,0,VALID,23.8499,VALID,129,VALID,0.714844,
2011-03-09, 01:25:04,VALID,1009.43,VALID,0,VALID,104,VALID,0,VALID,23.8712,VALID,151,VALID,0.582031,
2011-03-09, 01:26:04,VALID,1009.46,VALID,0,VALID,104,VALID,0,VALID,23.8109,VALID,151,VALID,0.608594,
2011-03-09, 01:27:04,VALID,1009.44,VALID,0,VALID,104,VALID,0,VALID,23.8109,VALID,151,VALID,0.558203,
2011-03-09, 01:28:04,VALID,1009.44,VALID,0,VALID,104,VALID,0,VALID,23.8127,VALID,151,VALID,0.439844,
2011-03-09, 01:29:04,VALID,1009.42,VALID,0,VALID,104,VALID,0,VALID,23.7914,VALID,151,VALID,0.464844,
2011-03-09, 01:30:04,VALID,1009.41,VALID,0,VALID,104,VALID,0,VALID,23.8109,VALID,151,VALID,0.398828,
2011-03-09, 01:31:04,VALID,1009.38,VALID,0,VALID,104,VALID,0,VALID,23.7914,VALID,151,VALID,0.346484,
2011-03-09, 01:32:04,VALID,1009.36,VALID,0,VALID,104,VALID,0,VALID,23.7914,VALID,151,VALID,0.382813,
2011-03-09, 01:33:04,VALID,1009.37,VALID,0,VALID,104,VALID,0,VALID,23.7914,VALID,151,VALID,0.502344,
2011-03-09, 01:34:04,VALID,1009.34,VALID,0,VALID,104,VALID,0,VALID,23.772,VALID,151,VALID,0.437109,
2011-03-09, 01:35:04,VALID,1009.33,VALID,0,VALID,104,VALID,0,VALID,23.7914,VALID,151,VALID,0.391797,
2011-03-09, 01:36:04,VALID,1009.33,VALID,0,VALID,104,VALID,0,VALID,23.7914,VALID,151,VALID,0.353906,
2011-03-09, 01:37:04,VALID,1009.34,VALID,0,VALID,104,VALID,0,VALID,23.8127,VALID,151,VALID,0.392969,
2011-03-09, 01:38:04,VALID,1009.31,VALID,0,VALID,104,VALID,0,VALID,23.7701,VALID,151,VALID,0.224219,
2011-03-09, 01:39:04,VALID,1009.37,VALID,0,VALID,104,VALID,0,VALID,23.7896,VALID,151,VALID,0.246484,
2011-03-09, 01:40:04,VALID,1009.35,VALID,0,VALID,104,VALID,0,VALID,23.8109,VALID,151,VALID,0.373828,
2011-03-09, 01:41:04,VALID,1009.35,VALID,0,VALID,104,VALID,0,VALID,23.7896,VALID,151,VALID,0.566797,
2011-03-09, 01:42:04,VALID,1009.36,VALID,0,VALID,104,VALID,0.105969,VALID,23.8109,VALID,151,VALID,0.50625,
2011-03-09, 01:43:04,VALID,1009.34,VALID,0,VALID,104,VALID,0,VALID,23.7914,VALID,149,VALID,0.789063,
2011-03-09, 01:44:04,VALID,1009.36,VALID,0,VALID,104,VALID,0,VALID,23.8109,VALID,149,VALID,0.410937,
2011-03-09, 01:45:04,VALID,1009.37,VALID,0,VALID,104,VALID,0,VALID,23.7896,VALID,153,VALID,0.250391,
2011-03-09, 01:46:04,VALID,1009.36,VALID,0,VALID,104,VALID,0,VALID,23.8109,VALID,153,VALID,0.385156,
2011-03-09, 01:47:04,VALID,1009.36,VALID,0,VALID,104,VALID,0,VALID,23.8091,VALID,147,VALID,0.339063,
2011-03-09, 01:48:04,VALID,1009.33,VALID,0,VALID,104,VALID,0,VALID,23.7896,VALID,133,VALID,0.729297,
2011-03-09, 01:49:04,VALID,1009.31,VALID,0,VALID,104,VALID,0,VALID,23.7896,VALID,124,VALID,0.805859,
2011-03-09, 01:50:04,VALID,1009.31,VALID,0,VALID,104,VALID,0.105969,VALID,23.8109,VALID,124,VALID,0.909375,
2011-03-09, 01:51:04,VALID,1009.32,VALID,0,VALID,104,VALID,0.105969,VALID,23.8091,VALID,124,VALID,0.8125,
2011-03-09, 01:52:04,VALID,1009.31,VALID,0,VALID,104,VALID,0,VALID,23.8091,VALID,124,VALID,0.339453,
2011-03-09, 01:53:04,VALID,1009.29,VALID,0,VALID,104,VALID,0,VALID,23.8499,VALID,124,VALID,0.598437,
2011-03-09, 01:54:04,VALID,1009.26,VALID,0,VALID,104,VALID,0,VALID,23.8304,VALID,125,VALID,0.71875,
2011-03-09, 01:55:04,VALID,1009.26,VALID,0,VALID,104,VALID,0,VALID,23.8517,VALID,132,VALID,0.49375,
2011-03-09, 01:56:04,VALID,1009.24,VALID,0,VALID,104,VALID,0,VALID,23.8304,VALID,132,VALID,0.561328,
2011-03-09, 01:57:04,VALID,1009.21,VALID,0,VALID,104,VALID,0,VALID,23.8499,VALID,124,VALID,0.833203,
2011-03-09, 01:58:04,VALID,1009.24,VALID,0,VALID,104,VALID,0,VALID,23.8322,VALID,123,VALID,1.11445,
2011-03-09, 01:59:04,VALID,1009.25,VALID,0,VALID,104,VALID,0,VALID,23.8109,VALID,137,VALID,0.775781,
2011-03-09, 02:00:04,VALID,1009.25,VALID,0,VALID,104,VALID,0,VALID,23.7914,VALID,112,VALID,0.674219,
2011-03-09, 02:01:04,VALID,1009.24,VALID,0,VALID,104,VALID,0,VALID,23.8109,VALID,123,VALID,0.379297,
2011-03-09, 02:02:04,VALID,1009.23,VALID,0,VALID,104,VALID,0,VALID,23.8304,VALID,125,VALID,0.566016,
2011-03-09, 02:03:04,VALID,1009.23,VALID,0,VALID,104,VALID,0,VALID,23.8304,VALID,133,VALID,0.447266,
2011-03-09, 02:04:04,VALID,1009.21,VALID,0,VALID,104,VALID,0,VALID,23.8304,VALID,120,VALID,0.566016,
2011-03-09, 02:05:04,VALID,1009.21,VALID,0,VALID,104,VALID,0,VALID,23.8304,VALID,123,VALID,0.995313,
2011-03-09, 02:06:04,VALID,1009.21,VALID,0,VALID,104,VALID,0,VALID,23.8304,VALID,127,VALID,0.790234,
2011-03-09, 02:07:04,VALID,1009.14,VALID,0,VALID,104,VALID,0,VALID,23.8304,VALID,140,VALID,0.925391,
2011-03-09, 02:08:04,VALID,1009.16,VALID,0,VALID,104,VALID,0,VALID,23.8499,VALID,140,VALID,0.432422,
2011-03-09, 02:09:04,VALID,1009.16,VALID,0,VALID,104,VALID,0,VALID,23.8109,VALID,130,VALID,0.828516,
2011-03-09, 02:10:04,VALID,1009.08,VALID,0,VALID,104,VALID,0,VALID,23.8109,VALID,126,VALID,0.437109,
2011-03-09, 02:11:04,VALID,1009.08,VALID,0,VALID,104,VALID,0,VALID,23.8109,VALID,137,VALID,0.452344,
2011-03-09, 02:12:04,VALID,1009.06,VALID,0,VALID,104,VALID,0,VALID,23.8109,VALID,137,VALID,0.476172,
2011-03-09, 02:13:04,VALID,1009.03,VALID,0,VALID,104,VALID,0,VALID,23.8109,VALID,110,VALID,0.583984,
2011-03-09, 02:14:04,VALID,1009.01,VALID,0,VALID,104,VALID,0,VALID,23.8109,VALID,118,VALID,0.4,
2011-03-09, 02:15:04,VALID,1009.01,VALID,0,VALID,104,VALID,0,VALID,23.8304,VALID,84,VALID,0.878906,
2011-03-09, 02:16:04,VALID,1008.98,VALID,0,VALID,104,VALID,0,VALID,23.8517,VALID,111,VALID,0.94375,
2011-03-09, 02:17:04,VALID,1008.98,VALID,0,VALID,104,VALID,0,VALID,23.8304,VALID,83,VALID,0.798437,
2011-03-09, 02:18:04,VALID,1008.98,VALID,0,VALID,104,VALID,0,VALID,23.8304,VALID,108,VALID,0.846875,
2011-03-09, 02:19:04,VALID,1008.93,VALID,0,VALID,104,VALID,0,VALID,23.8304,VALID,110,VALID,0.552344,
2011-03-09, 02:20:04,VALID,1008.96,VALID,0,VALID,104,VALID,0,VALID,23.8499,VALID,107,VALID,0.530078,
2011-03-09, 02:21:04,VALID,1008.93,VALID,0,VALID,104,VALID,0,VALID,23.8499,VALID,111,VALID,0.1125,
2011-03-09, 02:22:04,VALID,1008.88,VALID,0,VALID,104,VALID,0,VALID,23.8499,VALID,111,VALID,0.271484,
2011-03-09, 02:23:04,VALID,1008.89,VALID,0,VALID,104,VALID,0.105969,VALID,23.8676,VALID,111,VALID,0,
2011-03-09, 02:24:04,VALID,1008.88,VALID,0,VALID,104,VALID,0.105969,VALID,23.8676,VALID,111,VALID,0.0457031,
2011-03-09, 02:25:04,VALID,1008.87,VALID,0,VALID,104,VALID,0,VALID,23.8889,VALID,111,VALID,0.000390625,
2011-03-09, 02:26:04,VALID,1008.86,VALID,0,VALID,104,VALID,0.105969,VALID,23.8871,VALID,111,VALID,0,
2011-03-09, 02:27:04,VALID,1008.82,VALID,0,VALID,104,VALID,0.105969,VALID,23.8871,VALID,111,VALID,0,
2011-03-09, 02:28:04,VALID,1008.83,VALID,0,VALID,104,VALID,0.105969,VALID,23.8871,VALID,108,VALID,0.686719,
2011-03-09, 02:29:04,VALID,1008.8,VALID,0,VALID,104,VALID,0.105969,VALID,23.8676,VALID,104,VALID,0.655078,
2011-03-09, 02:30:04,VALID,1008.84,VALID,0,VALID,104,VALID,0.105969,VALID,23.8676,VALID,106,VALID,1.06445,
2011-03-09, 02:31:04,VALID,1008.85,VALID,0,VALID,104,VALID,0.105969,VALID,23.9065,VALID,106,VALID,0.298438,
2011-03-09, 02:32:04,VALID,1008.85,VALID,0,VALID,104,VALID,0.105969,VALID,23.8871,VALID,106,VALID,0.396875,
2011-03-09, 02:33:04,VALID,1008.87,VALID,0,VALID,104,VALID,0.105969,VALID,23.8871,VALID,72,VALID,0.666016,
2011-03-09, 02:34:04,VALID,1008.87,VALID,0,VALID,104,VALID,0.105969,VALID,23.8676,VALID,72,VALID,0.328125,
2011-03-09, 02:35:04,VALID,1008.89,VALID,0,VALID,104,VALID,0.105969,VALID,23.8889,VALID,72,VALID,0.434766,
2011-03-09, 02:36:04,VALID,1008.86,VALID,0,VALID,104,VALID,0.105969,VALID,23.8481,VALID,72,VALID,0.398047,
2011-03-09, 02:37:04,VALID,1008.89,VALID,0,VALID,104,VALID,0.105969,VALID,23.8694,VALID,72,VALID,0.227344,
2011-03-09, 02:38:04,VALID,1008.86,VALID,0,VALID,104,VALID,0,VALID,23.8712,VALID,72,VALID,0.419531,
2011-03-09, 02:39:04,VALID,1008.88,VALID,0,VALID,104,VALID,0,VALID,23.8304,VALID,68,VALID,0.360547,
2011-03-09, 02:40:04,VALID,1008.87,VALID,0,VALID,104,VALID,0,VALID,23.8322,VALID,68,VALID,0.601953,
2011-03-09, 02:41:04,VALID,1008.87,VALID,0,VALID,104,VALID,0,VALID,23.8109,VALID,68,VALID,0.404297,
2011-03-09, 02:42:04,VALID,1008.91,VALID,0,VALID,104,VALID,0,VALID,23.7914,VALID,68,VALID,0.597266,
2011-03-09, 02:43:04,VALID,1008.91,VALID,0,VALID,104,VALID,0,VALID,23.7914,VALID,68,VALID,0.470703,
2011-03-09, 02:44:04,VALID,1008.89,VALID,0,VALID,104,VALID,0,VALID,23.7914,VALID,66,VALID,0.590625,
2011-03-09, 02:45:04,VALID,1008.88,VALID,0,VALID,104,VALID,0,VALID,23.772,VALID,66,VALID,0.167187,
2011-03-09, 02:46:04,VALID,1008.86,VALID,0,VALID,104,VALID,0,VALID,23.772,VALID,66,VALID,0.285156,
2011-03-09, 02:47:04,VALID,1008.83,VALID,0,VALID,104,VALID,0,VALID,23.772,VALID,66,VALID,0.551953,
2011-03-09, 02:48:04,VALID,1008.85,VALID,0,VALID,104,VALID,0,VALID,23.7525,VALID,66,VALID,0.438281,
2011-03-09, 02:49:04,VALID,1008.84,VALID,0,VALID,104,VALID,0,VALID,23.7525,VALID,64,VALID,0.576563,
2011-03-09, 02:50:04,VALID,1008.8,VALID,0,VALID,104,VALID,0,VALID,23.7543,VALID,59,VALID,0.467187,
2011-03-09, 02:51:04,VALID,1008.78,VALID,0,VALID,104,VALID,0,VALID,23.7135,VALID,59,VALID,0.429688,
2011-03-09, 02:52:04,VALID,1008.8,VALID,0,VALID,104,VALID,0,VALID,23.7348,VALID,59,VALID,0.595312,
2011-03-09, 02:53:04,VALID,1008.77,VALID,0,VALID,104,VALID,0,VALID,23.7117,VALID,59,VALID,0.564844,
2011-03-09, 02:54:04,VALID,1008.79,VALID,0,VALID,104,VALID,0.105969,VALID,23.6922,VALID,64,VALID,0.467187,
2011-03-09, 02:55:04,VALID,1008.8,VALID,0,VALID,104,VALID,0,VALID,23.6922,VALID,83,VALID,0.887109,
2011-03-09, 02:56:04,VALID,1008.82,VALID,0,VALID,104,VALID,0,VALID,23.694,VALID,81,VALID,0.626562,
2011-03-09, 02:57:04,VALID,1008.79,VALID,0,VALID,104,VALID,0,VALID,23.7135,VALID,105,VALID,0.441016,
2011-03-09, 02:58:04,VALID,1008.8,VALID,0,VALID,104,VALID,0,VALID,23.6727,VALID,45,VALID,0.695313,
2011-03-09, 02:59:04,VALID,1008.85,VALID,0,VALID,104,VALID,0.105969,VALID,23.6532,VALID,46,VALID,0.380078,
2011-03-09, 03:00:04,VALID,1008.82,VALID,0,VALID,104,VALID,0.105969,VALID,23.655,VALID,58,VALID,0.138281,
2011-03-09, 03:01:04,VALID,1008.83,VALID,0,VALID,104,VALID,0.105969,VALID,23.6532,VALID,58,VALID,0.0117188,
2011-03-09, 03:02:04,VALID,1008.84,VALID,0,VALID,104,VALID,0,VALID,23.655,VALID,77,VALID,0.090625,
2011-03-09, 03:03:04,VALID,1008.82,VALID,0,VALID,104,VALID,0.105969,VALID,23.6338,VALID,77,VALID,0.2125,
2011-03-09, 03:04:04,VALID,1008.82,VALID,0,VALID,104,VALID,0,VALID,23.6143,VALID,77,VALID,0.01875,
2011-03-09, 03:05:04,VALID,1008.79,VALID,0,VALID,104,VALID,0,VALID,23.6356,VALID,77,VALID,0.257813,
2011-03-09, 03:06:04,VALID,1008.78,VALID,0,VALID,104,VALID,0,VALID,23.6143,VALID,77,VALID,0.151953,
2011-03-09, 03:07:04,VALID,1008.76,VALID,0,VALID,104,VALID,0,VALID,23.6161,VALID,77,VALID,0.190234,
2011-03-09, 03:08:04,VALID,1008.74,VALID,0,VALID,104,VALID,0,VALID,23.6161,VALID,77,VALID,0,
2011-03-09, 03:09:04,VALID,1008.74,VALID,0,VALID,104,VALID,0.105969,VALID,23.6161,VALID,77,VALID,0,
2011-03-09, 03:10:04,VALID,1008.72,VALID,0,VALID,104,VALID,0,VALID,23.5948,VALID,77,VALID,0.040625,
2011-03-09, 03:11:04,VALID,1008.69,VALID,0,VALID,104,VALID,0.105969,VALID,23.5948,VALID,92,VALID,0.482031,
2011-03-09, 03:12:04,VALID,1008.72,VALID,0,VALID,104,VALID,0.105969,VALID,23.6161,VALID,100,VALID,0.189453,
2011-03-09, 03:13:04,VALID,1008.72,VALID,0,VALID,104,VALID,0,VALID,23.5753,VALID,100,VALID,0.413281,
2011-03-09, 03:14:04,VALID,1008.72,VALID,0,VALID,104,VALID,0,VALID,23.5753,VALID,100,VALID,0.204688,
2011-03-09, 03:15:04,VALID,1008.73,VALID,0,VALID,104,VALID,0.105969,VALID,23.5753,VALID,100,VALID,0.355078,
2011-03-09, 03:16:04,VALID,1008.73,VALID,0,VALID,104,VALID,0.105969,VALID,23.5558,VALID,100,VALID,0.292969,
2011-03-09, 03:17:04,VALID,1008.75,VALID,0,VALID,104,VALID,0,VALID,23.5966,VALID,100,VALID,0.0339844,
2011-03-09, 03:18:04,VALID,1008.76,VALID,0,VALID,104,VALID,0,VALID,23.5558,VALID,44,VALID,0.796094,
2011-03-09, 03:19:04,VALID,1008.78,VALID,0,VALID,104,VALID,0.105969,VALID,23.5558,VALID,40,VALID,0.360156,
2011-03-09, 03:20:04,VALID,1008.8,VALID,0,VALID,104,VALID,0,VALID,23.5558,VALID,59,VALID,0.461719,
2011-03-09, 03:21:04,VALID,1008.78,VALID,0,VALID,104,VALID,0,VALID,23.5558,VALID,67,VALID,0.85,
2011-03-09, 03:22:04,VALID,1008.79,VALID,0,VALID,104,VALID,0,VALID,23.5363,VALID,69,VALID,0.702344,
2011-03-09, 03:23:04,VALID,1008.8,VALID,0,VALID,104,VALID,0.105969,VALID,23.5363,VALID,83,VALID,0.672656,
2011-03-09, 03:24:04,VALID,1008.79,VALID,0,VALID,104,VALID,0,VALID,23.5169,VALID,71,VALID,0.431641,
2011-03-09, 03:25:04,VALID,1008.78,VALID,0,VALID,104,VALID,0,VALID,23.5169,VALID,71,VALID,0.261719,
2011-03-09, 03:26:04,VALID,1008.78,VALID,0,VALID,104,VALID,0,VALID,23.5381,VALID,71,VALID,0.239063,
2011-03-09, 03:27:04,VALID,1008.76,VALID,0,VALID,104,VALID,0,VALID,23.4974,VALID,71,VALID,0.212891,
2011-03-09, 03:28:04,VALID,1008.77,VALID,0,VALID,104,VALID,0.105969,VALID,23.5186,VALID,71,VALID,0,
2011-03-09, 03:29:04,VALID,1008.74,VALID,0,VALID,104,VALID,0.105969,VALID,23.5169,VALID,71,VALID,0,
2011-03-09, 03:30:04,VALID,1008.72,VALID,0,VALID,104,VALID,0.105969,VALID,23.5169,VALID,71,VALID,0,
2011-03-09, 03:31:04,VALID,1008.75,VALID,0,VALID,104,VALID,0,VALID,23.4974,VALID,71,VALID,0.150781,
2011-03-09, 03:32:04,VALID,1008.71,VALID,0,VALID,104,VALID,0,VALID,23.4779,VALID,71,VALID,0.361719,
2011-03-09, 03:33:04,VALID,1008.7,VALID,0,VALID,104,VALID,0,VALID,23.4779,VALID,71,VALID,0.276953,
2011-03-09, 03:34:04,VALID,1008.72,VALID,0,VALID,104,VALID,0,VALID,23.4992,VALID,71,VALID,0.557031,
2011-03-09, 03:35:04,VALID,1008.73,VALID,0,VALID,104,VALID,0.105969,VALID,23.4779,VALID,71,VALID,0.592188,
2011-03-09, 03:36:04,VALID,1008.74,VALID,0,VALID,104,VALID,0,VALID,23.4992,VALID,77,VALID,0.700781,
2011-03-09, 03:37:04,VALID,1008.72,VALID,0,VALID,104,VALID,0,VALID,23.4992,VALID,86,VALID,0.462891,
2011-03-09, 03:38:04,VALID,1008.68,VALID,0,VALID,104,VALID,0.105969,VALID,23.4992,VALID,86,VALID,0.345703,
2011-03-09, 03:39:04,VALID,1008.72,VALID,0,VALID,104,VALID,0,VALID,23.4992,VALID,86,VALID,0.320313,
2011-03-09, 03:40:04,VALID,1008.7,VALID,0,VALID,104,VALID,0,VALID,23.4779,VALID,86,VALID,0.385547,
2011-03-09, 03:41:04,VALID,1008.72,VALID,0,VALID,104,VALID,0.105969,VALID,23.4779,VALID,86,VALID,0.228906,
2011-03-09, 03:42:04,VALID,1008.72,VALID,0,VALID,104,VALID,0.105969,VALID,23.4779,VALID,86,VALID,0.403125,
2011-03-09, 03:43:04,VALID,1008.74,VALID,0,VALID,104,VALID,0,VALID,23.4797,VALID,74,VALID,0.6625,
2011-03-09, 03:44:04,VALID,1008.75,VALID,0,VALID,104,VALID,0,VALID,23.4797,VALID,118,VALID,0.801172,
2011-03-09, 03:45:04,VALID,1008.76,VALID,0,VALID,104,VALID,0,VALID,23.4779,VALID,108,VALID,0.771094,
2011-03-09, 03:46:04,VALID,1008.77,VALID,0,VALID,104,VALID,0,VALID,23.4797,VALID,104,VALID,0.316797,
2011-03-09, 03:47:04,VALID,1008.75,VALID,0,VALID,104,VALID,0,VALID,23.4389,VALID,98,VALID,0.658203,
2011-03-09, 03:48:04,VALID,1008.75,VALID,0,VALID,104,VALID,0,VALID,23.4602,VALID,98,VALID,1.07852,
2011-03-09, 03:49:04,VALID,1008.75,VALID,0,VALID,104,VALID,0,VALID,23.4602,VALID,88,VALID,0.972266,
2011-03-09, 03:50:04,VALID,1008.74,VALID,0,VALID,104,VALID,0,VALID,23.4389,VALID,96,VALID,1.47734,
2011-03-09, 03:51:04,VALID,1008.71,VALID,0,VALID,104,VALID,0,VALID,23.4407,VALID,95,VALID,1.12773,
2011-03-09, 03:52:04,VALID,1008.73,VALID,0,VALID,104,VALID,0,VALID,23.4194,VALID,97,VALID,0.88125,